Starlink 32255

operational
NORAD ID: 60417 Int'l Des: 2024-141 Owner: SPXS Country: US Constellation: starlink
LEOCIRCULAR

Starlink 32255について

説明を読み込み中...

リアルタイム位置

3D地球を読み込み中...

次回通過

高度履歴

Altitude vs Time

uPlot chart will show altitude changes over time

軌道要素

1 60417U 24141V 25354.87467845 .00000248 00000-0 20507-4 0 9990
2 60417 53.1608 248.6765 0001048 83.6919 276.4201 15.30194941 77519
Epoch: Dec 20, 2025 • Age: 11 hours

現在のステータス

高度 479.2 km
速度 7.63 km/s
衛星直下点 44.79°N, 80.55°E
打ち上げ日 Aug 10, 2024
運用期間 1.3 years
タイプ internet

技術仕様

分類 Payload
質量 730.00 kg
乾燥質量 700.00 kg
総質量 730.00 kg
長さ 0.30 m
直径 4.10 m
スパン 29.00 m
形状 Box + pan
製造者 SPXS
バスタイプ Starlink V2M
フェーズステータス In Orbit
所有者/国 SPXS/US

大規模コンステレーション

Loading constellations...